Location: Yoder Observing Site
(32.2942°N, 83.9813°W)
Time: 19:38:16
(UTC-05:00)

Amateur Radio Satellites - All Passes

Search period start: 21 January 2018 19:08
Search period end: 22 January 2018 19:08
Location: Yoder Observing Site, 32.2942°N, 83.9813°W

Satellite Date Start Highest point End Downlink Frequencies (MHz)
Time Altitude Azimuth
HO-68 21 Jan 19:12:26 19:19:31 64° 257° (WSW) 19:26:37 435.675
CUBEBUG 2 21 Jan 19:22:36 19:26:53 64° 260° (W) 19:31:20 437.445
UWE-3 21 Jan 19:26:03 19:30:24 72° 78° (ENE) 19:34:56 435.000/436.395/437.385
BEESAT 2 21 Jan 19:42:34 19:46:19 38° 58° (ENE) 19:50:00 435.950
ZACube-1 21 Jan 19:47:48 19:52:10 63° 75° (ENE) 19:56:38 437.345
nSIGHT-1 21 Jan 19:53:14 19:56:22 80° 134° (SE) 19:59:31 .
AO-73 21 Jan 19:54:01 19:58:22 65° 77° (ENE) 20:02:51 145.935
AAUSAT CUBESAT 2 21 Jan 20:02:31 20:06:33 53° 260° (W) 20:10:35 437.432
AO-85 21 Jan 20:02:51 20:05:11 13° 49° (NE) 20:07:32 145.980
PCSat 21 Jan 20:03:45 20:09:07 67° 248° (WSW) 20:14:28 145.827
ISS 21 Jan 20:09:53 20:13:07 76° 134° (SE) 20:16:23 437.550
STRAND 1 21 Jan 20:25:48 20:30:51 59° 286° (WNW) 20:35:54 437.568
Oscar 11 21 Jan 20:26:24 20:30:44 85° 255° (WSW) 20:35:07 .
SEEDS 21 Jan 20:26:41 20:27:58 11° 267° (W) 20:29:15 437.485
DELFI C3 21 Jan 20:32:32 20:34:51 15° 70° (ENE) 20:37:09 145.870
BEESAT 3 21 Jan 20:32:51 20:33:20 10° 253° (WSW) 20:33:49 437.485
XW-2A 21 Jan 20:35:19 20:37:45 18° 264° (W) 20:40:12 145.665 - 145.685
FO-29 21 Jan 20:37:09 20:42:18 67° 102° (ESE) 20:47:38 435.910
Max Valier Satellite 21 Jan 20:59:42 21:02:31 21° 72° (ENE) 21:05:20 145.860
EO-88 21 Jan 21:16:16 21:19:03 21° 72° (ENE) 21:21:50 145.990 - 145.960
BEESAT 2 21 Jan 21:21:56 21:23:37 12° 252° (WSW) 21:25:16 435.950
nSIGHT-1 21 Jan 21:32:18 21:32:53 10° 330° (NNW) 21:33:28 .
AO-85 21 Jan 21:40:58 21:46:05 80° 243° (WSW) 21:51:24 145.980
ISS 21 Jan 21:48:52 21:49:57 11° 330° (NNW) 21:51:02 437.550
TIGRISAT 21 Jan 21:54:38 21:59:05 41° 99° (E) 22:03:27 435.000
YUBILEINY 21 Jan 21:59:13 22:04:58 20° 82° (E) 22:10:43 435.215
DELFI C3 21 Jan 22:05:54 22:09:17 28° 263° (W) 22:12:41 145.870
UNISAT 6 21 Jan 22:09:59 22:14:42 70° 101° (E) 22:19:19 437.425
FO-29 21 Jan 22:25:34 22:26:50 11° 296° (WNW) 22:28:07 435.910
LO-87 21 Jan 22:32:25 22:35:08 21° 72° (ENE) 22:37:53 145.935 - 145.965
Max Valier Satellite 21 Jan 22:33:31 22:36:11 18° 265° (W) 22:38:52 145.860
ESTCUBE 1 21 Jan 22:49:34 22:53:35 33° 72° (ENE) 22:57:37 437.505/2401.250
EO-88 21 Jan 22:50:04 22:52:33 17° 265° (W) 22:55:02 145.990 - 145.960
TIGRISAT 21 Jan 23:32:28 23:35:21 16° 292° (WNW) 23:38:12 435.000
PRISM 21 Jan 23:39:14 23:43:11 51° 285° (WNW) 23:47:09 437.425
AIST 2D 21 Jan 23:41:49 23:45:17 79° 101° (E) 23:48:43 435.315
YUBILEINY 21 Jan 23:52:01 00:00:48 71° 277° (W) 00:09:37 435.215
POLYITAN 1 21 Jan 23:56:29 00:00:09 27° 97° (E) 00:03:44 437.675
LO-87 22 Jan 00:06:10 00:08:25 16° 265° (W) 00:10:41 145.935 - 145.965
SPROUT 22 Jan 00:09:16 00:13:25 58° 75° (ENE) 00:17:36 437.525
NANOSAT C BR1 22 Jan 00:10:51 00:14:46 35° 98° (E) 00:18:39 145.865
VELOX 1 22 Jan 00:20:39 00:24:46 40° 73° (ENE) 00:28:52 145.980
NO-84 22 Jan 00:24:55 00:27:29 28° 45° (NE) 00:30:09 435.350 FM
QB50P2 22 Jan 00:25:46 00:30:03 74° 102° (ESE) 00:34:18 145.880/145.840
ESTCUBE 1 22 Jan 00:27:20 00:30:23 18° 265° (W) 00:33:27 437.505/2401.250
O/OREOS (USA 219) 22 Jan 00:38:38 00:43:08 77° 289° (WNW) 00:47:39 437.305
DUCHIFAT 1 22 Jan 00:53:38 00:57:54 78° 282° (WNW) 01:02:07 145.980
EO-79 22 Jan 00:56:23 01:00:32 51° 285° (WNW) 01:04:40 145.935-145.965
50 SAT 22 Jan 01:13:13 01:15:23 18° 72° (ENE) 01:17:33 437.505
POLYITAN 1 22 Jan 01:32:34 01:35:40 20° 290° (WNW) 01:38:46 437.675
AO-91 22 Jan 01:32:36 01:37:02 41° 100° (E) 01:41:50 145.960
NANOSAT C BR1 22 Jan 01:47:38 01:50:06 15° 292° (WNW) 01:52:35 145.865
BUGSAT 1 22 Jan 01:50:32 01:54:48 81° 282° (WNW) 01:59:01 437.445
UKube-1 22 Jan 01:54:54 01:59:03 52° 74° (ENE) 02:03:14 .
VELOX 1 22 Jan 01:59:12 02:01:18 13° 266° (W) 02:03:25 145.980
Gurwin Techsat 1B 22 Jan 02:00:07 02:05:14 47° 100° (E) 02:10:20 435.225
NO-84 22 Jan 02:03:06 02:04:26 12° 236° (SW) 02:05:47 435.350 FM
Oscar 19 22 Jan 02:05:03 02:10:14 74° 102° (ESE) 02:15:20 437.125/150
ITUPSAT 1 22 Jan 02:08:13 02:08:31 10° 64° (ENE) 02:08:49 437.325
DX 1 22 Jan 02:09:11 02:13:25 57° 259° (W) 02:17:41 434.975-435.025
MOZHAYETS 4 22 Jan 02:24:02 02:28:00 29° 71° (ENE) 02:31:59
nSIGHT-1 22 Jan 02:24:58 02:26:05 11° 31° (NNE) 02:27:12 .
AO-7 22 Jan 02:30:06 02:34:07 14° 93° (E) 02:38:07 .
FALCONSAT 3 22 Jan 02:32:47 02:35:43 22° 151° (SSE) 02:38:40 435.103
ISS 22 Jan 02:42:46 02:44:07 12° 31° (NNE) 02:45:27 437.550
BEESAT 22 Jan 02:43:03 02:47:01 27° 70° (ENE) 02:51:00 436.000
50 SAT 22 Jan 02:45:28 02:46:58 13° 265° (W) 02:48:29 437.505
AO-91 22 Jan 03:10:06 03:13:11 18° 289° (WNW) 03:16:26 145.960
ITAMSAT 1 22 Jan 03:15:49 03:18:31 14° 94° (E) 03:21:13 435.822/435.867
ITUPSAT 1 22 Jan 03:40:56 03:45:40 69° 258° (WSW) 03:50:27 437.325
Gurwin Techsat 1B 22 Jan 03:41:19 03:44:44 18° 294° (WNW) 03:48:09 435.225
Oscar 19 22 Jan 03:47:43 03:48:50 11° 297° (WNW) 03:49:56 437.125/150
nSIGHT-1 22 Jan 03:59:23 04:02:32 69° 227° (SW) 04:05:41 .
MOZHAYETS 4 22 Jan 04:01:34 04:05:04 21° 265° (W) 04:08:36
CUBESAT XI-V 22 Jan 04:06:31 04:11:13 85° 258° (WSW) 04:15:55 437.345
FALCONSAT 3 22 Jan 04:10:52 04:14:32 90° 174° (S) 04:18:14 435.103
ISS 22 Jan 04:17:39 04:20:54 69° 226° (SW) 04:24:09 437.550
AO-7 22 Jan 04:19:14 04:27:38 89° 298° (WNW) 04:35:59 .
BEESAT 22 Jan 04:20:50 04:24:40 24° 263° (W) 04:28:32 436.000
DOVE 4 22 Jan 04:26:29 04:29:39 19° 96° (E) 04:32:57 437.250
ITAMSAT 1 22 Jan 04:53:08 04:58:12 53° 287° (WNW) 05:03:15 435.822/435.867
SO-50 22 Jan 05:05:31 05:09:55 68° 116° (ESE) 05:14:23 436.795
M-CUBED/EXP-1 PRIME 22 Jan 05:18:32 05:21:40 42° 104° (ESE) 05:24:45 437.505
KKS-1 22 Jan 05:19:54 05:24:19 86° 74° (ENE) 05:28:45 437.445
STARS 22 Jan 05:32:23 05:36:27 41° 73° (ENE) 05:40:32 437.465
LilacSat-2 22 Jan 05:49:11 05:51:55 19° 96° (E) 05:54:39 437.200
XW-2C 22 Jan 05:49:49 05:52:23 18° 95° (E) 05:54:56 145.795 - 145.815
FALCONSAT 3 22 Jan 05:50:11 05:53:46 49° 358° (N) 05:57:20 435.103
STRAND 1 22 Jan 06:01:37 06:03:18 12° 64° (ENE) 06:04:58 437.568
DOVE 4 22 Jan 06:03:23 06:07:17 31° 287° (WNW) 06:11:24 437.250
AO-7 22 Jan 06:14:26 06:19:14 17° 304° (NW) 06:24:03 .
KAITUO 1B 22 Jan 06:20:03 06:23:19 30° 98° (E) 06:26:33 145.475/437.950
XW-2F 22 Jan 06:23:56 06:27:32 48° 100° (E) 06:31:06 145.980 - 146.000
NUDT-PHONESAT 22 Jan 06:28:23 06:31:47 36° 98° (E) 06:35:09 437.300
XW-2D 22 Jan 06:34:43 06:38:29 82° 103° (ESE) 06:42:12 145.860 - 145.880
CUTE-I 22 Jan 06:35:38 06:40:51 53° 100° (E) 06:46:02 437.470
FO-29 22 Jan 06:45:32 06:50:06 19° 67° (ENE) 06:54:20 435.910
HO-68 22 Jan 06:45:43 06:52:01 33° 98° (E) 06:58:18 435.675
SO-50 22 Jan 06:49:18 06:50:49 11° 312° (NW) 06:52:20 436.795
CUTE 1.7 + AOD 2 22 Jan 06:51:50 06:55:28 28° 97° (E) 06:59:06 437.475
XW-2B 22 Jan 06:52:27 06:56:08 57° 283° (WNW) 06:59:47 145.730 - 145.750
RS-15 22 Jan 07:07:58 07:19:01 41° 106° (ESE) 07:30:01 29.354- 29.394
STARS 22 Jan 07:10:53 07:12:54 13° 266° (W) 07:14:55 437.465
CUBEBUG 2 22 Jan 07:17:53 07:22:21 39° 98° (E) 07:26:44 437.445
UWE-3 22 Jan 07:20:57 07:24:33 22° 95° (E) 07:28:06 435.000/436.395/437.385
LilacSat-2 22 Jan 07:23:15 07:26:03 20° 288° (WNW) 07:28:50 437.200
XW-2C 22 Jan 07:23:33 07:26:27 21° 288° (WNW) 07:29:19 145.795 - 145.815
FALCONSAT 3 22 Jan 07:29:23 07:33:02 74° 12° (NNE) 07:36:42 435.103
STRAND 1 22 Jan 07:36:47 07:41:50 68° 259° (WSW) 07:46:54 437.568
ZACube-1 22 Jan 07:41:47 07:44:54 18° 94° (E) 07:47:58 437.345
AO-73 22 Jan 07:47:39 07:50:46 18° 94° (E) 07:53:49 145.935
AAUSAT CUBESAT 2 22 Jan 07:49:10 07:52:49 31° 97° (E) 07:56:27 437.432
KAITUO 1B 22 Jan 07:55:21 07:56:57 13° 291° (WNW) 07:58:33 145.475/437.950
XW-2A 22 Jan 08:00:17 08:03:17 31° 98° (E) 08:06:15 145.665 - 145.685
NUDT-PHONESAT 22 Jan 08:04:41 08:05:12 10° 292° (WNW) 08:05:42 437.300
SEEDS 22 Jan 08:11:46 08:15:45 46° 285° (WNW) 08:19:43 437.485
CUTE-I 22 Jan 08:17:15 08:20:24 16° 294° (WNW) 08:23:32 437.470
Oscar 11 22 Jan 08:18:47 08:22:20 25° 96° (E) 08:25:51 .
FO-29 22 Jan 08:27:49 08:34:47 60° 259° (WSW) 08:40:57 435.910
CUTE 1.7 + AOD 2 22 Jan 08:28:13 08:31:03 18° 290° (WNW) 08:33:51 437.475
HO-68 22 Jan 08:33:11 08:39:41 39° 292° (WNW) 08:46:10 435.675
BEESAT 3 22 Jan 08:37:39 08:40:46 23° 111° (ESE) 08:43:55 437.485
TIGRISAT 22 Jan 08:49:20 08:52:31 20° 69° (ENE) 08:55:45 435.000
CUBEBUG 2 22 Jan 08:55:30 08:58:34 17° 292° (WNW) 09:01:35 437.445
UWE-3 22 Jan 08:56:58 09:00:54 28° 289° (WNW) 09:04:47 435.000/436.395/437.385
PCSat 22 Jan 08:57:56 09:02:38 31° 108° (ESE) 09:07:22 145.827
UNISAT 6 22 Jan 09:04:11 09:08:06 32° 72° (ENE) 09:12:07 437.425
FALCONSAT 3 22 Jan 09:08:41 09:11:58 31° 207° (SSW) 09:15:14 435.103
ZACube-1 22 Jan 09:17:10 09:21:11 31° 288° (WNW) 09:25:06 437.345
RS-15 22 Jan 09:19:11 09:31:07 54° 305° (NW) 09:43:00 29.354- 29.394
AO-73 22 Jan 09:23:01 09:26:58 31° 288° (WNW) 09:30:51 145.935
AAUSAT CUBESAT 2 22 Jan 09:25:30 09:27:57 16° 291° (WNW) 09:30:25 437.432
BEESAT 2 22 Jan 09:29:25 09:32:26 21° 110° (ESE) 09:35:29 435.950
DELFI C3 22 Jan 09:46:26 09:50:12 45° 99° (E) 09:53:58 145.870
JUGNU 22 Jan 09:46:39 09:50:38 19° 169° (S) 09:54:35 437.505
Oscar 11 22 Jan 09:55:01 09:58:17 21° 289° (WNW) 10:01:33 .
Max Valier Satellite 22 Jan 10:06:34 10:10:11 52° 100° (E) 10:13:44 145.860
YUBILEINY 22 Jan 10:08:22 10:16:41 47° 79° (ENE) 10:24:55 435.215
AIST 2D 22 Jan 10:12:43 10:14:23 13° 70° (ENE) 10:16:04 435.315
BEESAT 3 22 Jan 10:14:59 10:18:10 23° 305° (NW) 10:21:21 437.485
EO-88 22 Jan 10:21:37 10:25:09 50° 100° (E) 10:28:39 145.990 - 145.960
PRISM 22 Jan 10:23:17 10:27:14 54° 75° (ENE) 10:31:12 437.425
TIGRISAT 22 Jan 10:25:08 10:28:56 29° 263° (W) 10:32:51 435.000
PCSat 22 Jan 10:41:19 10:45:56 28° 303° (WNW) 10:50:35 145.827
UNISAT 6 22 Jan 10:41:55 10:44:50 17° 266° (W) 10:47:48 437.425
POLYITAN 1 22 Jan 10:46:25 10:47:48 11° 67° (ENE) 10:49:10 437.675
O/OREOS (USA 219) 22 Jan 10:53:16 10:57:45 89° 247° (WSW) 11:02:14 437.305
NANOSAT C BR1 22 Jan 10:59:30 11:01:48 15° 68° (ENE) 11:04:07 145.865
BEESAT 2 22 Jan 11:06:39 11:09:58 25° 304° (NW) 11:13:19 435.950
QB50P2 22 Jan 11:13:46 11:17:24 28° 72° (ENE) 11:21:02 145.880/145.840
JUGNU 22 Jan 11:34:27 11:39:01 24° 179° (S) 11:43:36 437.505
LO-87 22 Jan 11:35:44 11:39:17 50° 100° (E) 11:42:48 145.935 - 145.965
DUCHIFAT 1 22 Jan 11:40:26 11:44:19 38° 73° (ENE) 11:48:15 145.980
RS-15 22 Jan 11:40:35 11:47:17 16° 332° (NNW) 11:53:54 29.354- 29.394
EO-79 22 Jan 11:43:29 11:47:37 60° 76° (ENE) 11:51:47 145.935-145.965
AIST 2D 22 Jan 11:44:17 11:47:16 26° 263° (W) 11:50:15 435.315
AO-85 22 Jan 11:51:20 11:55:13 74° 299° (WNW) 11:59:20 145.980
SRMSAT 22 Jan 11:58:54 12:02:08 15° 165° (SSE) 12:05:23 437.500
SPROUT 22 Jan 12:00:49 12:03:08 14° 94° (E) 12:05:27 437.525
YUBILEINY 22 Jan 12:05:47 12:13:01 31° 275° (W) 12:20:15 435.215
VELOX 1 22 Jan 12:17:33 12:18:43 11° 93° (E) 12:19:54 145.980
POLYITAN 1 22 Jan 12:19:01 12:23:05 47° 261° (W) 12:27:11 437.675
ESTCUBE 1 22 Jan 12:22:42 12:27:05 58° 285° (WNW) 12:31:27 437.505/2401.250
AO-91 22 Jan 12:28:12 12:29:35 12° 69° (ENE) 12:30:59 145.960
NANOSAT C BR1 22 Jan 12:33:16 12:37:08 36° 262° (W) 12:41:02 145.865
BUGSAT 1 22 Jan 12:35:28 12:39:08 34° 73° (ENE) 12:42:53 437.445
QB50P2 22 Jan 12:50:15 12:53:08 18° 265° (W) 12:56:02 145.880/145.840
Gurwin Techsat 1B 22 Jan 13:16:29 13:21:33 48° 72° (ENE) 13:26:39 435.225
Oscar 19 22 Jan 13:16:58 13:22:06 67° 75° (ENE) 13:27:17 437.125/150
DUCHIFAT 1 22 Jan 13:18:12 13:20:05 13° 267° (W) 13:21:58 145.980
JUGNU 22 Jan 13:23:18 13:27:25 20° 189° (S) 13:31:34 437.505
AO-7 22 Jan 13:25:03 13:29:21 15° 55° (NE) 13:33:40 .
SPROUT 22 Jan 13:35:08 13:39:05 36° 287° (WNW) 13:43:01 437.525
SO-50 22 Jan 13:41:48 13:45:10 19° 52° (NE) 13:48:33 436.795
SRMSAT 22 Jan 13:46:05 13:50:41 23° 174° (S) 13:55:17 437.500
UKube-1 22 Jan 13:48:20 13:50:06 12° 94° (E) 13:51:51 .
VELOX 1 22 Jan 13:51:06 13:55:20 49° 286° (WNW) 13:59:35 145.980
DX 1 22 Jan 14:01:59 14:05:55 33° 99° (E) 14:09:50 434.975-435.025
50 SAT 22 Jan 14:02:43 14:05:22 25° 98° (E) 14:08:00 437.505
AO-91 22 Jan 14:03:05 14:05:49 23° 263° (W) 14:08:35 145.960
RS-15 22 Jan 14:05:57 14:07:50 10° 12° (NNE) 14:09:42 29.354- 29.394
BUGSAT 1 22 Jan 14:12:32 14:14:34 13° 266° (W) 14:16:36 437.445
ITAMSAT 1 22 Jan 14:29:43 14:32:26 15° 65° (ENE) 14:35:10 435.822/435.867
Gurwin Techsat 1B 22 Jan 14:58:25 15:01:40 16° 266° (W) 15:04:55 435.225
Oscar 19 22 Jan 15:00:30 15:01:47 11° 268° (W) 15:03:03 437.125/150
AO-7 22 Jan 15:12:29 15:20:50 83° 72° (ENE) 15:29:14 .
JUGNU 22 Jan 15:14:42 15:15:46 10° 198° (SSW) 15:16:50 437.505
SO-50 22 Jan 15:21:18 15:25:45 42° 247° (WSW) 15:30:15 436.795
UKube-1 22 Jan 15:22:10 15:26:14 42° 287° (WNW) 15:30:17 .
SRMSAT 22 Jan 15:34:39 15:39:17 23° 185° (S) 15:43:55 437.500
NO-84 22 Jan 15:35:31 15:38:20 25° 126° (SE) 15:40:59 435.350 FM
DX 1 22 Jan 15:39:02 15:41:47 17° 292° (WNW) 15:44:32 434.975-435.025
ITUPSAT 1 22 Jan 15:46:07 15:50:42 43° 100° (E) 15:55:15 437.325
M-CUBED/EXP-1 PRIME 22 Jan 15:58:57 16:02:45 30° 69° (ENE) 16:06:22 437.505
MOZHAYETS 4 22 Jan 15:59:54 16:04:28 63° 284° (WNW) 16:08:59
ITAMSAT 1 22 Jan 16:06:19 16:11:21 55° 259° (W) 16:16:26 435.822/435.867
CUBESAT XI-V 22 Jan 16:08:01 16:12:10 33° 98° (E) 16:16:17 437.345
RS-15 22 Jan 16:15:56 16:26:00 32° 45° (NE) 16:35:34 29.354- 29.394
BEESAT 22 Jan 16:24:24 16:29:10 67° 285° (WNW) 16:33:53 436.000
XW-2F 22 Jan 17:01:43 17:03:17 12° 69° (ENE) 17:04:51 145.980 - 146.000
DOVE 4 22 Jan 17:03:56 17:08:09 51° 260° (W) 17:12:14 437.250
AO-7 22 Jan 17:09:31 17:14:15 16° 266° (W) 17:19:02 .
XW-2D 22 Jan 17:11:47 17:14:33 19° 71° (ENE) 17:17:18 145.860 - 145.880
HO-68 22 Jan 17:12:03 17:15:48 15° 59° (ENE) 17:19:34 435.675
NO-84 22 Jan 17:13:17 17:15:27 17° 318° (NW) 17:17:33 435.350 FM
KKS-1 22 Jan 17:15:58 17:19:33 23° 97° (E) 17:23:06 437.445
SRMSAT 22 Jan 17:24:26 17:27:51 16° 194° (SSW) 17:31:16 437.500
ITUPSAT 1 22 Jan 17:25:12 17:28:07 16° 293° (WNW) 17:30:59 437.325
STARS 22 Jan 17:28:44 17:29:47 11° 93° (E) 17:30:49 437.465
XW-2B 22 Jan 17:28:47 17:32:09 30° 73° (ENE) 17:35:31 145.730 - 145.750
M-CUBED/EXP-1 PRIME 22 Jan 17:33:55 17:37:02 19° 259° (WSW) 17:40:02 437.505
CUTE 1.7 + AOD 2 22 Jan 17:41:42 17:43:17 12° 68° (ENE) 17:44:52 437.475
CUBESAT XI-V 22 Jan 17:46:06 17:49:15 19° 291° (WNW) 17:52:23 437.345
CUTE-I 22 Jan 17:52:44 17:57:54 54° 73° (ENE) 18:03:04 437.470
PCSat 22 Jan 17:52:57 17:54:06 11° 48° (NE) 17:55:16 145.827
XW-2C 22 Jan 17:58:43 18:02:32 84° 78° (ENE) 18:06:22 145.795 - 145.815
LilacSat-2 22 Jan 17:58:58 18:02:49 87° 257° (WSW) 18:06:41 437.200
CUBEBUG 2 22 Jan 18:12:08 18:15:05 18° 69° (ENE) 18:18:06 437.445
UWE-3 22 Jan 18:16:22 18:16:33 10° 65° (ENE) 18:16:45 435.000/436.395/437.385
RS-15 22 Jan 18:27:52 18:39:17 70° 247° (WSW) 18:50:08 29.354- 29.394
KAITUO 1B 22 Jan 18:28:06 18:31:47 55° 260° (W) 18:35:29 145.475/437.950
XW-2F 22 Jan 18:33:33 18:37:01 33° 262° (W) 18:40:29 145.980 - 146.000
BEESAT 3 22 Jan 18:34:54 18:38:37 42° 59° (ENE) 18:42:15 437.485
NUDT-PHONESAT 22 Jan 18:35:32 18:39:08 46° 261° (W) 18:42:44 437.300
AAUSAT CUBESAT 2 22 Jan 18:36:35 18:37:59 12° 68° (ENE) 18:39:23 437.432
XW-2D 22 Jan 18:45:35 18:48:31 21° 264° (W) 18:51:29 145.860 - 145.880
KKS-1 22 Jan 18:52:21 18:55:57 25° 290° (WNW) 18:59:34 437.445
nSIGHT-1 22 Jan 18:56:54 18:59:39 28° 130° (SE) 19:02:24 .
SEEDS 22 Jan 18:57:59 19:02:08 59° 76° (ENE) 19:06:17 437.485
XW-2B 22 Jan 19:04:27 19:06:19 13° 266° (W) 19:08:11 145.730 - 145.750
